星链-35763(STARLINK-35763)

导读

STARLINK-35763是美国SpaceX星链星座的一员,于2025年12月14日发射入轨,属于星链低轨互联网卫星组网布局的新增卫星。星链系统旨在提供全球覆盖的高速卫星互联网服务,该卫星延续了星链星座标准化设计,将补充完善星座网络容量,进一步提升全球偏远地区、海上及航空场景的网络连接覆盖能力。

Basic Information
目录编号:
67089
目录名称:
STARLINK-35763
国际标识:
2025-298Q
轨道中心:
EARTH
卫星名称:
星链-35763
卫星全名:
星链-35763(STARLINK-35763)
卫星状态:
在轨 (已飞行181 天)
发射日期:
2025-12-14 UTC
国别 :
美国 (US)
星等 :
--
Orbit Information
数据来源 国际轨道数据 AOE轨道数据
星历时间 2026-06-12T15:08:03+0800
1天前
查看轨道信息
2026-06-13T06:00:00+0800
12小时前
查看轨道信息
半长轴 6950.188km 6950.213km
偏心率 0.0003499 0.0003728
轨道倾角 70.000° 70.000°
近地点辐角 268.404° 261.484°
升交点赤经 136.120° 134.558°
平近点角 91.672° 198.733°
近地点 569.619km 569.484km
远地点 574.483km 574.668km
周期 96.107分钟 96.107分钟
每日圈数 14.983317 14.983237
Detailed Information
固有亮度:
5
最大亮度:
2.5
卫星平台:
Starlink V1.0
覆盖范围:
全球
运营商:
太空探索技术公司
运营商所在国:
美国
制造商(研发单位):
太空探索技术公司
制造商所在国:
美国
使用方式:
暂无
Satellite Introduction
Starlink 计划是 SpaceX 推出的全球卫星互联网项目,通过发射低轨道卫星,为全球尤其是偏远地区提供高速、低延迟的互联网服务。自 2019 年起,Starlink 已部署数千颗卫星,旨在缩小全球数字鸿沟,推动互联网普及。该项目还为军事、航空等行业提供通信支持,带来广泛经济效益。
2D Orbit Map
3D Orbit Map
Orbit Altitude Analysis Chart
Orbit Inclination Analysis Chart
Orbit Comprehensive Analysis Chart
View Comprehensive Chart